{"data":{"norad_id":58186,"intl_designator":"2023-167M","name":"STARLINK-30755","alt_names":[],"object_type":"PAYLOAD","status":"ACTIVE","operator":null,"country":"US","launch_date":"2023-10-30","launch_site_code":"AFETR","launch_vehicle":null,"mission":null,"orbit_class":"UNKNOWN","rcs_meters":null,"size_class":null,"mass_kg":null,"dimensions":null,"purposes":["comms"],"wikipedia_slug":null,"has_3d_model":false,"image_url":null,"decayed_at":null,"tle_current":{"epoch":"2026-09-19T23:44:43.893024Z","epoch_age_seconds":184597,"freshness":"STALE","line1":"1 58186U 23167M   26262.98939691  .00000771  00000+0  37552-4 0  9999","line2":"2 58186  43.0028 125.8509 0001360 271.7047  88.3649 15.27578957160703","mean_motion":15.27578957,"eccentricity":0.000136,"inclination_deg":43.0028,"raan_deg":125.8509,"arg_perigee_deg":271.7047,"mean_anomaly_deg":88.3649,"bstar":3.7552e-5,"rev_number":16070,"period_min":94.26681307708,"perigee_km":482.11909742484,"apogee_km":483.98534089245,"semimajor_km":6861.1892191586,"source":"CELESTRAK","updated_at":"2026-09-21T09:00:33.828116Z"}}}